User: anonymous   Login
Location: Asheville, NC
(35.6000°N, 82.5500°W)
Time: 09:27:44
(UTC-05:00)
Language:

XW-2A - Orbit

View from above orbital plane
View from above orbital plane
View from above satellite
View from above satellite

Ground track
Ground track

The orbit data is extracted from the following two-line orbital elements,

1 40903U 15049E   18320.16029883  .00001866  00000-0  47138-4 0  9994
2 40903  97.3681 356.4383 0013295 193.4897 239.5381 15.41065065177206
Epoch (UTC): 16 November 2018 03:50:49
Eccentricity: 0.0013295
inclination: 97.3681°
perigee height: 434 km
apogee height: 452 km
right ascension of ascending node: 356.4383°
argument of perigee: 193.4897°
revolutions per day: 15.41065065
mean anomaly at epoch: 239.5381°
orbit number at epoch: 17720

The dashed part of the orbit path shows where the satellite is in the earth's shadow,  

DLR